Regional Weather Roundup
Issued by NWS State College, PA

Home | Current Version | Previous Version | Graphics & Text | Print | Product List | Glossary On
Versions: 1 2 3 4 5 6 7 8 9 10 11 12 13 14 15 16 17 18 19 20 21 22 23 24 25 26 27 28 29 30 31 32 33 34 35 36 37 38 39 40 41 42 43 44 45 46 47 48 49 50
000
ASUS41 KCTP 172210
RWRCTP

REGIONAL WEATHER ROUNDUP
NATIONAL WEATHER SERVICE STATE COLLEGE PA
500 PM EST TUE JAN 17 2017

Note: "fair" indicates few or no clouds below 12,000 feet with no
significant weather and/or obstructions to visibility.

* = STATION THAT DOES NOT REPORT PRECIPITATION /E.G. RAIN...SNOW...ETC/
    THUNDER OR FOG.

PAZ002>004-007>009-013>016-020>023-029>032-172300-
WESTERN PENNSYLVANIA

CITY           SKY/WX    TMP DP  RH WIND       PRES   REMARKS
ERIE           CLOUDY    49  45  86 W13G25    29.81R
MEADVILLE      CLOUDY    53  45  74 SW13      29.81R
FRANKLIN*        N/A     54  48  82 SW7       29.83R
NEW CASTLE     CLOUDY    57  50  77 W9        29.83R
BEAVER COUNTY  CLOUDY    55  50  82 W10       29.83S
BUTLER*        CLOUDY    55  52  88 W7        29.86R
PITTSBURGH INT LGT RAIN  56  53  90 W12       29.83R
PITTSBURGH     CLOUDY    59  50  72 SW10      29.83R
INDIANA*       CLOUDY    57  55  94 SW9G16    29.86S
LATROBE        MOCLDY    57  57 100 SW16G28   29.86S
WASHINGTON CO* NOT AVBL
$$

PAZ004>006-010>012-017>019-024>028-033>037-041-042-045-046-049>053-172300-
CENTRAL PENNSYLVANIA

CITY           SKY/WX    TMP DP  RH WIND       PRES   REMARKS
BRADFORD       LGT RAIN  44  44 100 SE5       29.81S VSB 3/4
DUBOIS         LGT RAIN  49  47  93 SW12G17   29.82R FOG
CLEARFIELD     FOG       39  39 100 NE6       29.86S VSB 1
JOHNSTOWN      CLOUDY    55  52  89 SW16      29.86S
ALTOONA        CLOUDY    40  40 100 CALM      29.90S FOG
STATE COLLEGE  FOG       36  36 100 W3        29.92S VSB 3/4
WILLIAMSPORT   CLOUDY    39  36  89 E15G22    29.96S FOG
SELINSGROVE    LGT RAIN  36  36 100 CALM      29.98F VSB 1
FT INDIANTOWN  LGT RAIN  37  37 100 NE5       30.00F FOG
CAPITAL CITY   LGT RAIN  41  38  89 CALM      30.00S FOG
HARRISBURG     CLOUDY    41  41 100 E3        29.99S FOG
YORK           LGT RAIN  41  41 100 E3        29.97F FOG
$$

PAZ038>040-043-044-047-048-054-055-060>062-067>071-172300-
EASTERN PENNSYLVANIA

CITY           SKY/WX    TMP DP  RH WIND       PRES   REMARKS
SCRANTON       LGT RAIN  38  36  92 E5        29.98F
MOUNT POCONO   FOG       31  30  96 E10       29.95F VSB<1/4
ALLENTOWN      LGT RAIN  37  34  89 E8        30.03F FOG
QUAKERTOWN*    CLOUDY    39  37  93 SE3       30.05R
READING        RAIN      41  38  89 SE3       30.00F VSB 1
LANCASTER      LGT RAIN  42  42 100 E5        30.00F FOG
COATESVILLE    FOG       41  41 100 E7        30.01F VSB 3/4
POTTSTOWN      LGT RAIN  39  39 100 E5        30.03S FOG
BLUE BELL      CLOUDY    41  39  93 CALM      30.03R
DOYLESTOWN     LGT RAIN  42  38  85 CALM      30.05R
WILLOW GROVE   NOT AVBL
NORTH PHILA    CLOUDY    45  42  89 SE7       30.06S
PHILADELPHIA   CLOUDY    45  42  89 SE8       30.03F
$$



USA.gov is the U.S. government's official web portal to all federal, state and local government web resources and services.